[[{"header":{"parameterUnit":"m.s-1","parameterCategory":1,"la1":30.2991,"la2":30.254,"lo1":-89.0895,"lo2":-89.0444,"dy":0.0017,"dx":0.0017,"nx":28,"ny":28,"refTime":"2023-11-21T09:00:00:Z","depth":0,"parameterNumber":2,"parameterNumberName":"U-component_of_WINDS"},"data":[0,0,0,0,0,0,0,0,0,0,0,0,0,0,0,0,0,0,0,0,0,0,0,0,0,0,0,0,0,0,0,0,0,0,0,0,0,0,0,0,0,0,0,0,0,0,0,0,0,0,0,0,0,0,0,0,0,0,3.1723,3.1723,0,3.1707,3.1707,3.1707,3.1651,3.1649,3.1648,3.1647,3.163,3.1631,3.1631,0,0,0,0,0,0,0,0,0,0,0,0,0,3.1707,3.1708,3.1723,3.1723,3.1723,3.1707,3.1707,3.1707,3.1651,3.1649,3.1648,3.1646,3.163,3.1631,3.1631,0,0,0,0,0,0,0,0,0,0,0,0,0,3.1705,3.1708,3.1723,3.1693,3.169,3.1707,3.1707,3.1706,3.1651,3.1649,3.1647,3.1646,3.1629,3.163,3.1632,3.1676,0,0,3.1635,3.1635,0,0,0,0,0,0,0,0,3.1705,3.1706,3.1698,3.1695,3.1692,3.1679,3.1695,3.1696,3.1652,3.1666,3.1647,3.1645,3.1648,3.1647,3.1648,3.1675,3.1674,3.1635,3.1636,3.1636,3.1636,0,0,0,0,0,0,0,3.1705,3.1706,3.1717,3.1698,3.1694,3.1681,3.1678,3.1695,3.1668,3.1665,3.166,3.1659,3.1646,3.1647,3.1647,3.1674,3.1635,3.1636,3.1637,3.1637,3.1738,3.174,0,0,0,0,0,0,3.171,3.1707,3.1717,3.1716,3.1694,3.1683,3.168,3.1685,3.1667,3.1663,3.1661,3.1657,3.1646,3.1646,3.1647,3.1698,3.1636,3.1637,3.1638,3.1736,3.1739,3.1741,0,0,0,0,0,0,3.171,3.1711,3.1718,3.171,3.171,3.1685,3.1691,3.1686,3.1687,3.1665,3.1659,3.1667,3.1645,3.1645,3.1669,3.1697,3.1638,3.1639,3.1734,3.1737,3.174,3.1801,0,0,0,0,0,0,3.171,3.1712,3.1728,3.1711,3.1711,3.1741,3.1693,3.1687,3.1689,3.1684,3.1669,3.1665,3.1643,3.1668,3.1671,3.1697,3.1639,3.1731,3.1735,3.1739,3.1796,3.1806,3.1814,0,0,0,0,0,3.1709,3.1745,3.1729,3.1731,3.1731,3.1742,3.1742,3.1717,3.1692,3.1708,3.1694,3.1666,3.1694,3.1671,3.1673,3.17,3.1729,3.1734,3.1738,3.1792,3.1804,3.1813,0,0,0,0,0,0,3.1765,3.1743,3.1724,3.1756,3.1752,3.1733,3.1753,3.1729,3.1732,3.1727,3.1695,3.1692,3.1721,3.1713,3.1689,3.1743,3.1707,3.1712,3.1747,3.1758,3.1766,3.1767,3.164,0,0,0,0,0,3.1782,3.1793,3.1773,3.1803,3.1802,3.1778,3.1782,3.1763,3.1757,3.1755,3.1742,3.1738,3.1746,3.1751,3.1757,3.1795,3.1792,3.1815,3.1824,3.1831,3.1836,3.1856,3.1867,3.1756,3.1756,3.1756,0,0,3.1815,3.1804,3.1813,3.1814,3.1808,3.1821,3.1777,3.1792,3.1801,3.1757,3.1779,3.177,3.1763,3.1795,3.1808,3.1789,3.1866,3.1837,3.1843,3.1844,3.1862,3.1872,3.1882,3.1759,3.1758,3.1758,0,0,3.1882,3.1875,3.19,3.1895,3.1888,3.1872,3.1878,3.1864,3.1856,3.1878,3.1846,3.1857,3.1871,3.1867,3.1867,3.1936,3.191,3.1939,3.1984,3.2004,3.2012,3.202,3.2045,3.2054,3.1944,3.1944,3.1944,0,3.1924,3.1942,3.1915,3.1933,3.1935,3.1897,3.1922,3.1919,3.1914,3.1916,3.1895,3.1913,3.1905,3.1936,3.1953,3.1954,3.196,3.1939,3.2013,3.2021,3.2027,3.205,3.206,3.1947,3.1947,3.1947,3.1946,0,3.1995,3.2008,3.2029,3.2026,3.203,3.2051,3.2028,3.2036,3.2017,3.2004,3.2027,3.2017,3.2021,3.2027,3.2008,3.2056,3.2044,3.2019,3.1982,3.2042,3.2063,3.2072,3.1952,3.1951,3.195,3.1949,0,0,3.2095,3.2078,3.2086,3.2084,3.2074,3.2084,3.2105,3.2108,3.2116,3.2114,3.2131,3.2144,3.2121,3.2122,3.2103,3.2121,3.2176,3.2093,3.2093,3.2109,3.2228,3.2246,3.2257,3.216,3.2161,3.2163,3.2228,0,3.2159,3.2192,3.2169,3.2207,3.2219,3.2184,3.2202,3.2198,3.2187,3.2196,3.2183,3.2193,3.2162,3.2163,3.2179,3.2166,3.2199,3.2161,3.2175,3.2175,3.2176,3.2268,3.2287,3.2349,3.2236,3.2238,3.2239,0,3.2237,3.224,3.2278,3.2267,3.2271,3.2288,3.229,3.2299,3.2295,3.2285,3.2287,3.2264,3.2283,3.2248,3.2275,3.2249,3.2254,3.2249,3.225,3.225,3.221,3.2269,3.2369,3.2378,3.2251,3.225,3.225,0,3.2306,3.2319,3.2344,3.2344,3.2332,3.2344,3.234,3.2333,3.2337,3.234,3.2342,3.2347,3.235,3.2354,3.2334,3.231,3.2364,3.2326,3.2356,3.2357,3.2368,3.2367,3.2469,3.2373,3.2372,3.2372,3.2372,0,3.2379,3.2404,3.2376,3.2391,3.2418,3.2393,3.2421,3.2412,3.2407,3.2421,3.2391,3.2404,3.2376,3.2387,3.2371,3.2396,3.2398,3.2391,3.2386,3.2393,3.2394,3.2394,3.2389,3.2375,3.2374,3.2374,3.2373,0,3.246,3.2442,3.2467,3.2454,3.2451,3.2472,3.2461,3.2475,3.2462,3.248,3.2482,3.2463,3.2474,3.2454,3.2463,3.2452,3.2487,3.2476,3.2489,3.2485,3.2516,3.2514,3.2621,3.2634,3.253,3.2531,3.2532,0,3.2508,3.2526,3.2516,3.2523,3.252,3.2532,3.2536,3.2512,3.2518,3.2516,3.253,3.2539,3.2545,3.2564,3.2551,3.2558,3.2546,3.2584,3.2547,3.2554,3.2546,3.2545,3.2547,3.2591,3.2592,3.2593,3.2594,0,3.2594,3.2585,3.2592,3.2598,3.2604,3.2607,3.2608,3.2615,3.259,3.2599,3.261,3.2615,3.2624,3.2633,3.2637,3.2633,3.2609,3.2606,3.2613,3.262,3.2626,3.2623,3.2509,3.2603,3.2602,3.2602,3.2601,3.2601,3.2659,3.2675,3.267,3.268,3.2678,3.268,3.2693,3.2683,3.2692,3.2698,3.2683,3.2698,3.2694,3.2697,3.2695,3.2707,3.269,3.2701,3.2704,3.2706,3.2711,3.2626,3.2708,3.2707,3.2707,3.2707,3.2707,0,3.2744,3.2739,3.2749,3.2752,3.276,3.2738,3.2738,3.2747,3.276,3.2759,3.2766,3.2779,3.2789,3.2777,3.2784,3.2796,3.2785,3.2798,3.2797,3.2796,3.2726,3.2719,3.2807,3.2807,3.2807,3.2807,3.2807,3.2807,3.2788,3.2813,3.2804,3.2828,3.2823,3.2838,3.284,3.2842,3.2841,3.2857,3.2865,3.2858,3.2852,3.2859,3.2867,3.2863,3.2867,3.2884,3.2877,3.2811,3.2801,3.2792,3.2785,3.2885,3.2886,3.2946,3.2947,3.2947]},{"header":{"parameterUnit":"m.s-1","parameterCategory":1,"la1":30.2991,"la2":30.254,"lo1":-89.0895,"lo2":-89.0444,"dy":0.0017,"dx":0.0017,"nx":28,"ny":28,"refTime":"2023-11-21T09:00:00:Z","depth":0,"parameterNumber":3,"parameterNumberName":"V-component_of_WINDS"},"data":[0,0,0,0,0,0,0,0,0,0,0,0,0,0,0,0,0,0,0,0,0,0,0,0,0,0,0,0,0,0,0,0,0,0,0,0,0,0,0,0,0,0,0,0,0,0,0,0,0,0,0,0,0,0,0,0,0,0,-6.749,-6.7491,0,-6.766,-6.7662,-6.7664,-6.7628,-6.7625,-6.7622,-6.7619,-6.7791,-6.7798,-6.7806,0,0,0,0,0,0,0,0,0,0,0,0,0,-6.713,-6.7137,-6.7489,-6.7492,-6.7494,-6.766,-6.7662,-6.7665,-6.7629,-6.7625,-6.7621,-6.7618,-6.7788,-6.7797,-6.7806,0,0,0,0,0,0,0,0,0,0,0,0,0,-6.7292,-6.7139,-6.7489,-6.7496,-6.7498,-6.766,-6.7663,-6.7665,-6.763,-6.7625,-6.762,-6.7616,-6.7785,-6.7796,-6.7808,-6.7972,0,0,-6.7842,-6.7847,0,0,0,0,0,0,0,0,-6.7283,-6.7305,-6.7493,-6.7496,-6.7499,-6.7618,-6.7599,-6.7768,-6.7631,-6.758,-6.7619,-6.7614,-6.7737,-6.7752,-6.7794,-6.798,-6.7987,-6.7843,-6.785,-6.7855,-6.7858,0,0,0,0,0,0,0,-6.7272,-6.7298,-6.7557,-6.7496,-6.7499,-6.749,-6.7508,-6.7631,-6.7683,-6.7584,-6.7582,-6.7603,-6.7738,-6.7784,-6.7798,-6.7989,-6.7843,-6.7853,-6.786,-6.7864,-6.8319,-6.8324,0,0,0,0,0,0,-6.7258,-6.7289,-6.7551,-6.7562,-6.7377,-6.75,-6.752,-6.7585,-6.7681,-6.7692,-6.7606,-6.76,-6.7767,-6.7785,-6.7804,-6.8003,-6.7854,-6.7865,-6.7872,-6.8314,-6.832,-6.8326,0,0,0,0,0,0,-6.7251,-6.7282,-6.7545,-6.7425,-6.7458,-6.7512,-6.7584,-6.7591,-6.7636,-6.7698,-6.7707,-6.7644,-6.7764,-6.7788,-6.7931,-6.8009,-6.787,-6.788,-6.8307,-6.8316,-6.8323,-6.8403,0,0,0,0,0,0,-6.7241,-6.728,-6.7343,-6.7427,-6.7464,-6.7669,-6.7589,-6.7597,-6.7656,-6.765,-6.7736,-6.7746,-6.7762,-6.7914,-6.7942,-6.8022,-6.7889,-6.8301,-6.8311,-6.832,-6.8393,-6.8412,-6.8429,0,0,0,0,0,-6.7228,-6.7358,-6.7346,-6.7378,-6.7545,-6.7674,-6.7695,-6.7712,-6.7663,-6.7727,-6.7767,-6.7743,-6.7996,-6.7929,-6.796,-6.8044,-6.8296,-6.8308,-6.832,-6.8385,-6.8409,-6.8428,0,0,0,0,0,0,-6.728,-6.7369,-6.7357,-6.7518,-6.7589,-6.7668,-6.7749,-6.7736,-6.7822,-6.7812,-6.7829,-6.7848,-6.7994,-6.8033,-6.7957,-6.8209,-6.8138,-6.8157,-6.8178,-6.8201,-6.8218,-6.8205,-6.7899,0,0,0,0,0,-6.7311,-6.7409,-6.7481,-6.7616,-6.7652,-6.7695,-6.7751,-6.7759,-6.7832,-6.7862,-6.7912,-6.7984,-6.8079,-6.8142,-6.8233,-6.8399,-6.8417,-6.8472,-6.849,-6.8504,-6.852,-6.8611,-6.8637,-6.8365,-6.8365,-6.8365,0,0,-6.7374,-6.7435,-6.7496,-6.7628,-6.7684,-6.7785,-6.772,-6.7829,-6.7905,-6.7878,-6.8016,-6.8056,-6.8137,-6.8292,-6.8363,-6.8329,-6.8599,-6.8519,-6.853,-6.8539,-6.8626,-6.8652,-6.8675,-6.8373,-6.8372,-6.8371,0,0,-6.7542,-6.7597,-6.7717,-6.7774,-6.786,-6.7888,-6.7917,-6.7998,-6.8024,-6.8163,-6.8146,-6.8235,-6.8399,-6.8458,-6.8509,-6.8701,-6.8683,-6.873,-6.8823,-6.8912,-6.8933,-6.8952,-6.9021,-6.9046,-6.8746,-6.8746,-6.8746,0,-6.761,-6.7762,-6.7779,-6.7891,-6.795,-6.7932,-6.8053,-6.8108,-6.8219,-6.826,-6.8221,-6.8428,-6.8481,-6.865,-6.8697,-6.8739,-6.8772,-6.872,-6.8929,-6.8948,-6.8966,-6.9032,-6.9058,-6.8751,-6.8751,-6.875,-6.875,0,-6.7842,-6.7948,-6.8034,-6.8144,-6.8212,-6.8328,-6.8362,-6.8429,-6.843,-6.8462,-6.8604,-6.8668,-6.8772,-6.8813,-6.8814,-6.8983,-6.8959,-6.8925,-6.8854,-6.8997,-6.9059,-6.9085,-6.8759,-6.8757,-6.8755,-6.8754,0,0,-6.8047,-6.8165,-6.8197,-6.8247,-6.8341,-6.8423,-6.8538,-6.8641,-6.8699,-6.8776,-6.8873,-6.9013,-6.8982,-6.9041,-6.9049,-6.9127,-6.9276,-6.9083,-6.9085,-6.9117,-6.9466,-6.9492,-6.9521,-6.9264,-6.9269,-6.9273,-6.9459,0,-6.8224,-6.8428,-6.8447,-6.863,-6.8729,-6.8714,-6.8814,-6.8882,-6.8915,-6.9003,-6.9038,-6.9138,-6.9089,-6.9125,-6.9201,-6.9242,-6.9346,-6.9228,-6.9354,-6.9359,-6.9335,-6.9553,-6.9581,-6.9754,-6.9484,-6.9488,-6.9491,0,-6.8458,-6.8544,-6.8737,-6.8818,-6.886,-6.895,-6.9048,-6.9132,-6.9209,-6.9227,-6.9294,-6.9292,-6.941,-6.9335,-6.9498,-6.9418,-6.947,-6.9498,-6.9505,-6.9518,-6.9434,-6.9573,-6.9809,-6.9836,-6.9529,-6.9526,-6.9523,0,-6.8589,-6.8753,-6.889,-6.8933,-6.9031,-6.9095,-6.9139,-6.9211,-6.9273,-6.9357,-6.9397,-6.9494,-6.9547,-6.9621,-6.9646,-6.9589,-6.9808,-6.9735,-6.9827,-6.9826,-6.9874,-6.987,-7.0123,-6.9907,-6.9906,-6.9906,-6.9905,0,-6.8785,-6.8904,-6.895,-6.9035,-6.9168,-6.9188,-6.9319,-6.9359,-6.9424,-6.9516,-6.9508,-6.9594,-6.9621,-6.9711,-6.9731,-6.9863,-6.9887,-6.9905,-6.9909,-6.9906,-6.9904,-6.9941,-6.993,-6.9913,-6.9911,-6.991,-6.9909,0,-6.8954,-6.899,-6.9139,-6.922,-6.9243,-6.9338,-6.9407,-6.9488,-6.952,-6.9636,-6.9665,-6.9714,-6.9821,-6.9852,-6.9979,-6.9993,-7.0148,-7.0141,-7.0123,-7.0123,-7.0213,-7.0205,-7.0499,-7.0539,-7.0296,-7.0298,-7.03,0,-6.9077,-6.9168,-6.926,-6.9322,-6.9369,-6.9467,-6.9531,-6.9554,-6.962,-6.9716,-6.9786,-6.9891,-6.9977,-7.0147,-7.0194,-7.0292,-7.0287,-7.0384,-7.0302,-7.0297,-7.0289,-7.0284,-7.0294,-7.0399,-7.0401,-7.0404,-7.0405,0,-6.9291,-6.9305,-6.9397,-6.9496,-6.9572,-6.9651,-6.9726,-6.9777,-6.9811,-6.9886,-6.9996,-7.0062,-7.0193,-7.0298,-7.0398,-7.0441,-7.043,-7.0431,-7.0457,-7.0456,-7.0442,-7.0451,-7.0166,-7.0424,-7.0422,-7.0421,-7.042,-7.0419,-6.9442,-6.9523,-6.9601,-6.9704,-6.9764,-6.9835,-6.9916,-6.9958,-7.005,-7.016,-7.0168,-7.0287,-7.0362,-7.0495,-7.0544,-7.0637,-7.0609,-7.0647,-7.0656,-7.0666,-7.0674,-7.0427,-7.0655,-7.0654,-7.0654,-7.0653,-7.0653,0,-6.9657,-6.9707,-6.9801,-6.9908,-6.9989,-6.9972,-7.0055,-7.0124,-7.0229,-7.0301,-7.0386,-7.0513,-7.0615,-7.067,-7.0772,-7.0835,-7.0832,-7.0861,-7.0857,-7.0867,-7.0692,-7.066,-7.0862,-7.0862,-7.0862,-7.0862,-7.0862,-7.0862,-6.9778,-6.9915,-6.9938,-7.0105,-7.0153,-7.027,-7.032,-7.0385,-7.0443,-7.0585,-7.067,-7.0706,-7.0772,-7.0878,-7.0971,-7.0985,-7.1022,-7.1055,-7.1065,-7.0901,-7.0879,-7.0859,-7.0829,-7.1063,-7.1063,-7.1233,-7.1234,-7.1235]}]]